Weather History for KJEF - January, 2013

Change the Weather History Date:

Tuesday, January 1, 2013

  Actual Average Record
Temperature  
Mean Temperature 22 °F -  
Max Temperature 28 °F 36 °F 72 °F (1965)
Min Temperature 14 °F 18 °F -10 °F (1928)
Degree Days  
Heating Degree Days 44    
Moisture  
Dew Point 16 °F    
Average Humidity 74    
Maximum Humidity 88    
Minimum Humidity 55    
Precipitation  
Precipitation 0.04 in - - ()
Sea Level Pressure  
Sea Level Pressure 30.22 in    
Wind  
Wind Speed 7 mph (NNW)    
Max Wind Speed 12 mph    
Max Gust Speed -    
Visibility 9 miles    
Events      
Averages and records for this station are not official NWS values.
T = Trace of Precipitation, MM = Missing Value Source: NWS Daily Summary

Daily Weather History Graph

Daily Weather History Graph

Search for Another Location

Airport or City:

Trip Planner

Search our weather history database for the weather conditions in past years. The results will help you decide how hot, cold, wet, or windy it might be!

Date:

Astronomy

Jan. 01, 2013 Rise Set
Actual Time 7:26 AM CST 4:58 PM CST
Civil Twilight 6:56 AM CST 5:28 PM CST
Nautical Twilight 6:23 AM CST 6:01 PM CST
Astronomical Twilight 5:51 AM CST 6:33 PM CST
Moon 9:26 PM CST 9:41 AM CST
Length of Visible Light 10h 31m
Length of Day
9h 32m
Waning Gibbous, 83% of the Moon is Illuminated
Jan 1
Waning Gibbous
Jan 4
Last Quarter
Jan 11
New
Jan 18
First Quarter
Jan 26
Full

Hourly Weather History & Observations

Time (CST) Temp. Windchill Dew Point Humidity Pressure Visibility Wind Dir Wind Speed Gust Speed Precip Events Conditions
12:12 AM 28.4 °F 19.7 °F 23.0 °F 80% 30.15 in 7.0 mi North 9.2 mph - 0.00 in   Overcast
12:53 AM 27.0 °F 17.3 °F 21.9 °F 81% 30.14 in 4.0 mi North 10.4 mph - 0.00 in   Haze
1:03 AM 26.6 °F 16.2 °F 21.2 °F 80% 30.15 in 5.0 mi North 11.5 mph - N/A   Haze
1:45 AM 26.6 °F 20.0 °F 21.2 °F 80% 30.16 in 9.0 mi North 5.8 mph - N/A   Overcast
1:53 AM 26.1 °F 16.8 °F 21.0 °F 81% 30.15 in 9.0 mi North 9.2 mph - N/A   Overcast
2:51 AM 24.8 °F 16.9 °F 17.6 °F 74% 30.19 in 10.0 mi Variable 6.9 mph - N/A   Overcast
2:53 AM 25.0 °F 18.1 °F 18.0 °F 75% 30.18 in 10.0 mi North 5.8 mph - N/A   Overcast
3:15 AM 24.8 °F 16.1 °F 17.6 °F 74% 30.18 in 10.0 mi NNW 8.1 mph - N/A   Overcast
3:53 AM 24.1 °F 16.0 °F 18.0 °F 77% 30.17 in 10.0 mi North 6.9 mph - N/A   Overcast
4:34 AM 24.8 °F 16.9 °F 17.6 °F 74% 30.17 in 10.0 mi North 6.9 mph - N/A   Overcast
4:53 AM 23.0 °F 14.7 °F 17.1 °F 78% 30.16 in 10.0 mi North 6.9 mph - N/A   Overcast
5:10 AM 23.0 °F 12.4 °F 15.8 °F 74% 30.17 in 10.0 mi North 10.4 mph - N/A   Overcast
7:53 AM 19.9 °F 13.4 °F 14.0 °F 78% 30.24 in 10.0 mi NNW 4.6 mph - N/A   Mostly Cloudy
8:53 AM 19.9 °F 13.4 °F 12.9 °F 74% 30.27 in 10.0 mi NNW 4.6 mph - N/A   Clear
9:53 AM 21.0 °F 11.4 °F 12.9 °F 71% 30.27 in 10.0 mi North 8.1 mph - N/A   Clear
10:53 AM 21.9 °F 12.5 °F 12.9 °F 68% 30.27 in 10.0 mi NNE 8.1 mph - N/A   Clear
11:53 AM 25.0 °F 18.1 °F 14.0 °F 63% 30.25 in 10.0 mi North 5.8 mph - N/A   Clear
12:53 PM 26.1 °F 21.9 °F 15.1 °F 63% 30.24 in 10.0 mi NNW 3.5 mph - 0.02 in   Mostly Cloudy
1:53 PM 27.0 °F 21.6 °F 14.0 °F 58% 30.24 in 10.0 mi Variable 4.6 mph - 0.01 in   Overcast
2:53 PM 26.1 °F 19.4 °F 14.0 °F 60% 30.24 in 10.0 mi NW 5.8 mph - N/A   Overcast
3:53 PM 26.1 °F - 12.0 °F 55% 30.26 in 10.0 mi Calm Calm - N/A   Mostly Cloudy
4:53 PM 24.1 °F 19.7 °F 14.0 °F 65% 30.26 in 10.0 mi WNW 3.5 mph - N/A   Overcast
5:53 PM 23.0 °F - 12.0 °F 63% 30.26 in 10.0 mi Calm Calm - 0.01 in   Clear
6:53 PM 19.9 °F 14.9 °F 14.0 °F 78% 30.26 in 10.0 mi WNW 3.5 mph - N/A   Clear
7:53 PM 19.9 °F 14.9 °F 14.0 °F 78% 30.27 in 10.0 mi NW 3.5 mph - N/A   Clear
8:53 PM 17.1 °F 11.7 °F 12.0 °F 81% 30.28 in 8.0 mi NW 3.5 mph - N/A   Clear
9:53 PM 16.0 °F 8.8 °F 12.0 °F 84% 30.29 in 6.0 mi NNW 4.6 mph - N/A   Clear
10:53 PM 15.1 °F - 10.9 °F 84% 30.28 in 7.0 mi Calm Calm - N/A   Clear
11:53 PM 14.0 °F - 10.9 °F 88% 30.28 in 6.0 mi Calm Calm - N/A   Clear